Spokane Fairchild, WA

6:46 AM PDT on April 19, 2018 (GMT -0700)
Fairchild Air Force Base

Weather History for KSKA - June, 2014

Change the Weather History Date:

Sunday, June 22, 2014

  Actual Average Record
Temperature  
Mean Temperature 62 °F -  
Max Temperature 78 °F 73 °F 89 °F (2004)
Min Temperature 47 °F 49 °F 41 °F (1997)
Degree Days  
Heating Degree Days 2    
Growing Degree Days 12 (Base 50)    
Moisture  
Dew Point 39 °F    
Average Humidity 43    
Maximum Humidity 74    
Minimum Humidity 20    
Precipitation  
Precipitation 0.00 in - - ()
Sea Level Pressure  
Sea Level Pressure 30.00 in    
Wind  
Wind Speed 3 mph (WSW)    
Max Wind Speed 9 mph    
Max Gust Speed -    
Visibility 10 miles    
Events      
Averages and records for this station are not official NWS values.
T = Trace of Precipitation, MM = Missing Value Source: NWS Daily Summary

Daily Weather History Graph

Daily Weather History Graph

Search for Another Location

Airport or City:

Trip Planner

Search our weather history database for the weather conditions in past years. The results will help you decide how hot, cold, wet, or windy it might be!

Date:

Astronomy

Jun. 22, 2014 Rise Set
Actual Time 4:53 AM PDT 8:52 PM PDT
Civil Twilight 4:12 AM PDT 9:33 PM PDT
Nautical Twilight 3:15 AM PDT 10:29 PM PDT
Astronomical Twilight 1:44 AM PDT 12:00 AM PDT
Moon 2:00 AM PDT (6/22) 4:24 PM PDT (6/22)
Length of Visible Light 17h 20m
Length of Day
15h 59m
Waning Crescent, 20% of the Moon is Illuminated
Jun 22
Waning Crescent
Jun 27
New
Jul 5
First Quarter
Jul 12
Full
Jul 18
Last Quarter

Hourly Weather History & Observations

Time (PDT) Temp. Dew Point Humidity Pressure Visibility Wind Dir Wind Speed Gust Speed Precip Events Conditions
12:58 AM 50.5 °F 42.4 °F 74% 30.01 in 10.0 mi West 2.3 mph - N/A   Clear
1:58 AM 52.3 °F 38.3 °F 59% 30.00 in 10.0 mi West 6.9 mph - N/A   Clear
2:58 AM 47.1 °F 38.8 °F 73% 30.01 in 10.0 mi West 3.5 mph - N/A   Partly Cloudy
3:58 AM 49.1 °F 38.8 °F 68% 30.01 in 10.0 mi Calm Calm - N/A   Clear
4:58 AM 50.2 °F 39.2 °F 66% 30.02 in 10.0 mi NNE 2.3 mph - N/A   Clear
5:58 AM 49.1 °F 39.6 °F 70% 30.03 in 10.0 mi NE 2.3 mph - N/A   Clear
6:58 AM 53.2 °F 43.0 °F 68% 30.03 in 10.0 mi ENE 4.6 mph - N/A   Clear
7:58 AM 58.3 °F 45.1 °F 62% 30.05 in 10.0 mi NE 4.6 mph - N/A   Clear
8:58 AM 62.4 °F 45.1 °F 53% 30.04 in 10.0 mi ENE 5.8 mph - N/A   Clear
9:58 AM 66.7 °F 43.7 °F 43% 30.04 in 10.0 mi Variable 1.2 mph - N/A   Clear
10:58 AM 70.3 °F 43.5 °F 38% 30.04 in 10.0 mi Calm Calm - N/A   Clear
11:58 AM 72.7 °F 37.8 °F 28% 30.04 in 10.0 mi Variable 4.6 mph - N/A   Clear
12:58 PM 73.9 °F 37.9 °F 27% 30.04 in 10.0 mi NE 4.6 mph - N/A   Clear
1:58 PM 75.7 °F 37.8 °F 25% 30.02 in 10.0 mi Variable 2.3 mph - N/A   Clear
2:58 PM 76.1 °F 36.0 °F 23% 30.01 in 10.0 mi WSW 9.2 mph - N/A   Clear
3:58 PM 76.8 °F 34.2 °F 21% 29.99 in 10.0 mi Variable 1.2 mph - 0.00 in   Clear
4:58 PM 78.3 °F 34.0 °F 20% 29.97 in 10.0 mi SW 5.8 mph - 0.00 in   Clear
5:58 PM 77.9 °F 34.9 °F 21% 29.98 in 10.0 mi SW 4.6 mph - N/A   Clear
6:58 PM 77.2 °F 32.9 °F 20% 29.96 in 10.0 mi WSW 4.6 mph - N/A   Clear
7:58 PM 73.9 °F 36.3 °F 25% 29.96 in 10.0 mi SW 4.6 mph - 0.00 in   Clear
8:58 PM 70.7 °F 38.1 °F 30% 29.96 in 10.0 mi SW 3.5 mph - 0.00 in   Clear
9:58 PM 65.8 °F 43.0 °F 43% 29.97 in 10.0 mi West 2.3 mph - N/A   Clear
10:58 PM 63.5 °F 41.4 °F 44% 29.96 in 10.0 mi SW 4.6 mph - N/A   Clear
11:58 PM 63.1 °F 38.5 °F 40% 29.96 in 10.0 mi SW 2.3 mph - N/A   Clear